World > North America > United States > Minnesota > Rochert

Hourly Rochert, MN Regional Weather

Feedback E-mail the Weather

Quick WX

Rochert, MN Weather Maps

°F °C°F °C
Rochert Weather Map
UTC Time: 8/14/2022, 16:09
Your Time:

Rochert, MN Regional Weather

Expires:202208141600;;088136
ASUS43 KMPX 141510
RWRMN 
WEATHER ROUNDUP FOR MINNESOTA
NATIONAL WEATHER SERVICE TWIN CITIES/CHANHASSEN MN
1000 AM CDT SUN AUG 14 2022


NOTE: "FAIR" INDICATES FEW OR NO CLOUDS BELOW 12,000 FEET WITH NO
SIGNIFICANT WEATHER AND/OR OBSTRUCTIONS TO VISIBILITY. N/A MEANS
CURRENT SKY AND/OR WEATHER CONDITIONS ARE NOT AVAILABLE.


MNZ001>005-007-008-013>017-022>024-027-028-141600-
   Northwest Minnesota   
  
CITY           SKY/WX    TMP DP  RH WIND       PRES   REMARKS
BEMIDJI        MOSUNNY   69  61  76 CALM      30.07F                  
HALLOCK        PTSUNNY   66  64  94 S8        30.01S                  
ROSEAU           N/A     72  64  78 S6        30.03F                  
WARROAD        MOSUNNY   70  64  83 SW7       30.04S                  
THIEF RVR FALL MOSUNNY   68  65  90 SW12      30.06F                  
CROOKSTON      MOSUNNY   70  61  73 S13       30.04F                  
FOSSTON        MOSUNNY   66  63  88 SW5       30.08F                  
DETROIT LAKES  PTSUNNY   66  61  82 S6        30.08F                  
MOORHEAD       PTSUNNY   66  61  82 S8        30.06S                  
PARK RAPIDS      N/A    N/A N/A N/A MISG      30.09S                  
MAHNOMEN       FAIR      65  62  91 S3        30.08S                  
$$

SKY/WX - Weather  TMP - Temperature  DP - Dew Point  RH - Humidity
WIND - Wind Direction/Speed PRES - Barometric Pressure VSB - Visibility
WCI - Wind Chill Index E13G22 Wind - East Wind 13 mph/Gusts of 22 mph

Trending Headlines

Rochert Radar Loop



Rochert Quick Facts


National Two Day Weather Forecast


E-mail the Rochert Weather Forecast

Voice your opinion or tell us about page issues...